THA204 VTSP-VTBS

Flight info

Callsign THA204
Flight time 1h 5m
Altitude 37000
Route EMRIT1A EMRIT Y99 NONEL Y98 LEBIM LEBIM1D
Aircraft A346/H-SDE2E3FGHIJ3J4J5M1RWXY/LB1D1

Departure

Time 2026-05-08 22:32
Airport Phuket International Airport (VTSP)

Arrival

Time 2026-05-08 23:37
Airport Suvarnabhumi Airport (VTBS)
Time Latitude Longitude Altitude Speed Heading
2026-05-08 22:11 8.10783 98.30500 36 ft 0 kts 105°
2026-05-08 22:25 8.10787 98.30480 35 ft 4 kts 90°
2026-05-08 22:26 8.10783 98.30456 31 ft 4 kts 68°
2026-05-08 22:26 8.10771 98.30432 31 ft 4 kts 57°
2026-05-08 22:26 8.10761 98.30417 32 ft 0 kts 60°
2026-05-08 22:28 8.10763 98.30419 33 ft 3 kts 59°
2026-05-08 22:29 8.10819 98.30440 35 ft 14 kts
2026-05-08 22:29 8.10919 98.30460 35 ft 15 kts 12°
2026-05-08 22:29 8.11017 98.30458 35 ft 13 kts 316°
2026-05-08 22:29 8.11043 98.30372 35 ft 12 kts 298°
2026-05-08 22:30 8.11115 98.30344 35 ft 12 kts 346°
2026-05-08 22:30 8.11184 98.30352 35 ft 9 kts 69°
2026-05-08 22:30 8.11202 98.30418 35 ft 11 kts 83°
2026-05-08 22:30 8.11202 98.30423 35 ft 0 kts 83°
2026-05-08 22:31 8.11208 98.30469 35 ft 29 kts 83°
2026-05-08 22:31 8.11249 98.30906 38 ft 93 kts 85°
2026-05-08 22:31 8.11329 98.31754 56 ft 146 kts 84°
2026-05-08 22:31 8.11442 98.32924 141 ft 182 kts 84°
2026-05-08 22:32 8.11560 98.34216 671 ft 185 kts 85°
2026-05-08 22:32 8.11676 98.35493 1309 ft 184 kts 85°
2026-05-08 22:32 8.11801 98.36823 1802 ft 196 kts 85°
2026-05-08 22:32 8.11935 98.38251 2184 ft 211 kts 85°
2026-05-08 22:33 8.12077 98.39787 2457 ft 228 kts 85°
2026-05-08 22:33 8.12235 98.41443 2759 ft 245 kts 85°
2026-05-08 22:33 8.12402 98.43208 3200 ft 257 kts 85°
2026-05-08 22:33 8.12573 98.45016 3862 ft 259 kts 85°
2026-05-08 22:34 8.12745 98.46838 4572 ft 262 kts 85°
2026-05-08 22:34 8.12916 98.48678 5253 ft 264 kts 85°
2026-05-08 22:34 8.13089 98.50545 5934 ft 268 kts 85°
2026-05-08 22:34 8.13264 98.52423 6613 ft 270 kts 85°
2026-05-08 22:35 8.13441 98.54327 7274 ft 273 kts 85°
2026-05-08 22:35 8.13620 98.56252 7942 ft 277 kts 85°
2026-05-08 22:35 8.14025 98.58157 8574 ft 283 kts 63°
2026-05-08 22:35 8.15335 98.59638 9217 ft 289 kts 34°
2026-05-08 22:36 8.17061 98.60690 9947 ft 291 kts 32°
2026-05-08 22:36 8.18823 98.61761 10426 ft 301 kts 33°
2026-05-08 22:36 8.20257 98.62656 10650 ft 314 kts 33°
2026-05-08 22:36 8.22123 98.63849 10924 ft 330 kts 34°
2026-05-08 22:37 8.24111 98.65139 11193 ft 346 kts 34°
2026-05-08 22:37 8.26191 98.66501 11464 ft 362 kts 34°
2026-05-08 22:37 8.28341 98.67916 11723 ft 377 kts 34°
2026-05-08 22:37 8.30574 98.69391 12125 ft 387 kts 34°
2026-05-08 22:38 8.32831 98.70885 12754 ft 389 kts 34°
2026-05-08 22:38 8.35101 98.72389 13423 ft 391 kts 34°
2026-05-08 22:38 8.37359 98.73889 13979 ft 395 kts 34°
2026-05-08 22:38 8.39672 98.75422 14492 ft 399 kts 34°
2026-05-08 22:39 8.42004 98.76967 15029 ft 402 kts 34°
2026-05-08 22:39 8.44354 98.78526 15529 ft 406 kts 34°
2026-05-08 22:39 8.46728 98.80101 16041 ft 410 kts 34°
2026-05-08 22:39 8.49127 98.81694 16533 ft 413 kts 34°
2026-05-08 22:40 8.51544 98.83299 17042 ft 417 kts 34°
2026-05-08 22:40 8.53982 98.84919 17511 ft 421 kts 34°
2026-05-08 22:40 8.56439 98.86552 17999 ft 424 kts 34°
2026-05-08 22:40 8.58888 98.88180 18409 ft 428 kts 34°
2026-05-08 22:41 8.61383 98.89839 18815 ft 431 kts 34°
2026-05-08 22:41 8.63895 98.91510 19217 ft 433 kts 34°
2026-05-08 22:41 8.66416 98.93187 19622 ft 436 kts 34°
2026-05-08 22:41 8.68963 98.94880 20033 ft 439 kts 34°
2026-05-08 22:42 8.71525 98.96585 20434 ft 441 kts 34°
2026-05-08 22:42 8.74101 98.98298 20843 ft 443 kts 34°
2026-05-08 22:42 8.76668 99.00007 21244 ft 446 kts 34°
2026-05-08 22:42 8.79296 99.01755 21649 ft 448 kts 34°
2026-05-08 22:43 8.81911 99.03496 22033 ft 451 kts 34°
2026-05-08 22:43 8.84542 99.05248 22421 ft 453 kts 34°
2026-05-08 22:43 8.87156 99.06989 22790 ft 456 kts 34°
2026-05-08 22:43 8.89818 99.08762 23151 ft 458 kts 34°
2026-05-08 22:44 8.92487 99.10541 23506 ft 460 kts 34°
2026-05-08 22:44 8.95166 99.12327 23815 ft 462 kts 34°
2026-05-08 22:44 8.97859 99.14122 24120 ft 464 kts 34°
2026-05-08 22:44 9.00565 99.15926 24407 ft 467 kts 34°
2026-05-08 22:45 9.03295 99.17747 24677 ft 469 kts 34°
2026-05-08 22:45 9.06031 99.19571 24975 ft 471 kts 34°
2026-05-08 22:45 9.08740 99.21378 25271 ft 473 kts 34°
2026-05-08 22:45 9.11495 99.23215 25567 ft 475 kts 34°
2026-05-08 22:46 9.14270 99.25067 25860 ft 477 kts 34°
2026-05-08 22:46 9.17054 99.26926 26142 ft 480 kts 34°
2026-05-08 22:46 9.19852 99.28794 26422 ft 482 kts 34°
2026-05-08 22:46 9.22648 99.30662 26703 ft 484 kts 34°
2026-05-08 22:47 9.25469 99.32547 26976 ft 486 kts 34°
2026-05-08 22:47 9.28304 99.34441 27250 ft 488 kts 34°
2026-05-08 22:47 9.31150 99.36344 27513 ft 490 kts 34°
2026-05-08 22:47 9.34001 99.38251 27805 ft 491 kts 34°
2026-05-08 22:48 9.36825 99.40135 28171 ft 491 kts 33°
2026-05-08 22:48 9.39749 99.41903 28573 ft 490 kts 29°
2026-05-08 22:48 9.42764 99.43448 28961 ft 489 kts 25°
2026-05-08 22:48 9.45826 99.44754 29340 ft 488 kts 21°
2026-05-08 22:49 9.48897 99.45825 29703 ft 488 kts 18°
2026-05-08 22:49 9.54167 99.47470 30218 ft 488 kts 17°
2026-05-08 22:49 9.57318 99.48439 30492 ft 488 kts 17°
2026-05-08 22:50 9.60497 99.49416 30785 ft 488 kts 18°
2026-05-08 22:50 9.63738 99.50418 31082 ft 487 kts 18°
2026-05-08 22:50 9.66984 99.51425 31394 ft 487 kts 18°
2026-05-08 22:50 9.71279 99.52766 31784 ft 486 kts 18°
2026-05-08 22:51 9.73462 99.53447 31982 ft 486 kts 18°
2026-05-08 22:51 9.76698 99.54454 32252 ft 487 kts 18°
2026-05-08 22:51 9.79932 99.55461 32543 ft 486 kts 18°
2026-05-08 22:51 9.83177 99.56468 32863 ft 486 kts 18°
2026-05-08 22:52 9.86367 99.57462 33160 ft 485 kts 18°
2026-05-08 22:52 9.89595 99.58469 33478 ft 485 kts 18°
2026-05-08 22:52 9.92816 99.59473 33770 ft 484 kts 18°
2026-05-08 22:52 9.96032 99.60477 34042 ft 484 kts 18°
2026-05-08 22:53 9.99246 99.61480 34307 ft 483 kts 18°
2026-05-08 22:53 10.02468 99.62486 34563 ft 482 kts 18°
2026-05-08 22:53 10.05680 99.63488 34843 ft 481 kts 18°
2026-05-08 22:53 10.08878 99.64488 35119 ft 480 kts 18°
2026-05-08 22:54 10.12056 99.65481 35393 ft 479 kts 18°
2026-05-08 22:54 10.15234 99.66473 35623 ft 480 kts 18°
2026-05-08 22:54 10.18389 99.67459 35820 ft 480 kts 18°
2026-05-08 22:54 10.21580 99.68455 36012 ft 481 kts 18°
2026-05-08 22:55 10.24792 99.69459 36198 ft 482 kts 18°
2026-05-08 22:55 10.28003 99.70463 36411 ft 482 kts 18°
2026-05-08 22:55 10.31216 99.71467 36612 ft 483 kts 18°
2026-05-08 22:55 10.34424 99.72471 36813 ft 483 kts 18°
2026-05-08 22:56 10.40861 99.74485 36873 ft 484 kts 18°
2026-05-08 22:56 10.47258 99.76488 36874 ft 483 kts 18°
2026-05-08 22:57 10.53686 99.78500 36874 ft 483 kts 18°
2026-05-08 22:57 10.60117 99.80515 36882 ft 483 kts 18°
2026-05-08 22:58 10.66518 99.82521 36882 ft 483 kts 18°
2026-05-08 22:58 10.72982 99.84549 36884 ft 483 kts 18°
2026-05-08 22:59 10.79366 99.86553 36877 ft 483 kts 18°
2026-05-08 22:59 10.85759 99.88679 36881 ft 482 kts 21°
2026-05-08 23:00 10.91903 99.91399 36881 ft 481 kts 28°
2026-05-08 23:00 10.97908 99.94422 36874 ft 483 kts 20°
2026-05-08 23:01 11.04419 99.96139 36880 ft 484 kts 14°
2026-05-08 23:01 11.10974 99.97699 36882 ft 483 kts 14°
2026-05-08 23:02 11.17471 99.99286 36872 ft 482 kts 14°
2026-05-08 23:02 11.23990 100.00902 36875 ft 481 kts 14°
2026-05-08 23:03 11.30492 100.02522 36888 ft 481 kts 14°
2026-05-08 23:03 11.36998 100.04147 36878 ft 481 kts 14°
2026-05-08 23:04 11.43493 100.05771 36877 ft 481 kts 14°
2026-05-08 23:04 11.49951 100.07386 36880 ft 481 kts 14°
2026-05-08 23:05 11.56455 100.09015 36882 ft 481 kts 14°
2026-05-08 23:05 11.62954 100.10642 36878 ft 481 kts 14°
2026-05-08 23:06 11.69467 100.12274 36879 ft 481 kts 14°
2026-05-08 23:06 11.75967 100.13904 36887 ft 481 kts 14°
2026-05-08 23:07 11.82467 100.15535 36884 ft 481 kts 14°
2026-05-08 23:07 11.88989 100.17170 36277 ft 484 kts 14°
2026-05-08 23:08 11.92275 100.17995 35451 ft 488 kts 14°
2026-05-08 23:08 11.95551 100.18819 34722 ft 492 kts 14°
2026-05-08 23:08 11.98870 100.19654 34065 ft 493 kts 14°
2026-05-08 23:08 12.02214 100.20495 33358 ft 494 kts 14°
2026-05-08 23:09 12.05564 100.21337 32638 ft 494 kts 14°
2026-05-08 23:09 12.08907 100.22177 31943 ft 494 kts 14°
2026-05-08 23:09 12.12249 100.23016 31258 ft 495 kts 14°
2026-05-08 23:09 12.15549 100.23847 30585 ft 496 kts 14°
2026-05-08 23:10 12.18952 100.24703 29878 ft 497 kts 14°
2026-05-08 23:10 12.22277 100.25539 29079 ft 498 kts 14°
2026-05-08 23:10 12.25642 100.26386 28342 ft 498 kts 14°
2026-05-08 23:10 12.29010 100.27234 27606 ft 498 kts 14°
2026-05-08 23:11 12.32368 100.28080 26968 ft 496 kts 14°
2026-05-08 23:11 12.35700 100.28919 26558 ft 489 kts 14°
2026-05-08 23:11 12.38977 100.29744 26079 ft 484 kts 14°
2026-05-08 23:11 12.42233 100.30565 25574 ft 480 kts 14°
2026-05-08 23:12 12.45462 100.31379 25086 ft 476 kts 14°
2026-05-08 23:12 12.48686 100.32192 24557 ft 474 kts 14°
2026-05-08 23:12 12.51863 100.32994 24093 ft 470 kts 14°
2026-05-08 23:12 12.55036 100.33795 23645 ft 466 kts 14°
2026-05-08 23:13 12.58167 100.34585 23159 ft 462 kts 14°
2026-05-08 23:13 12.61278 100.35372 22683 ft 458 kts 14°
2026-05-08 23:13 12.64317 100.36138 22225 ft 453 kts 14°
2026-05-08 23:13 12.67399 100.36916 21793 ft 448 kts 14°
2026-05-08 23:14 12.70370 100.37665 21383 ft 443 kts 14°
2026-05-08 23:14 12.73355 100.38419 20973 ft 439 kts 14°
2026-05-08 23:14 12.76306 100.39165 20556 ft 435 kts 14°
2026-05-08 23:14 12.79237 100.39906 20145 ft 431 kts 14°
2026-05-08 23:15 12.82144 100.40640 19735 ft 428 kts 14°
2026-05-08 23:15 12.85023 100.41369 19320 ft 425 kts 14°
2026-05-08 23:15 12.87881 100.42092 18917 ft 421 kts 14°
2026-05-08 23:15 12.90710 100.42807 18503 ft 419 kts 14°
2026-05-08 23:16 12.93534 100.43523 18082 ft 416 kts 14°
2026-05-08 23:16 12.96337 100.44236 17616 ft 414 kts 14°
2026-05-08 23:16 12.99090 100.44931 17460 ft 401 kts 14°
2026-05-08 23:16 13.01761 100.45606 17317 ft 389 kts 14°
2026-05-08 23:17 13.04313 100.46253 17231 ft 376 kts 14°
2026-05-08 23:17 13.06755 100.46902 17130 ft 365 kts 18°
2026-05-08 23:17 13.09114 100.47846 17028 ft 359 kts 27°
2026-05-08 23:17 13.11282 100.49126 16661 ft 358 kts 34°
2026-05-08 23:18 13.13329 100.50587 16264 ft 357 kts 37°
2026-05-08 23:18 13.15338 100.52072 15906 ft 355 kts 37°
2026-05-08 23:18 13.17338 100.53547 15552 ft 352 kts 37°
2026-05-08 23:18 13.19330 100.55001 15195 ft 350 kts 37°
2026-05-08 23:19 13.21309 100.56444 14849 ft 348 kts 36°
2026-05-08 23:19 13.23259 100.57859 14497 ft 346 kts 36°
2026-05-08 23:19 13.25224 100.59279 14159 ft 344 kts 36°
2026-05-08 23:19 13.27182 100.60691 13829 ft 344 kts 36°
2026-05-08 23:20 13.29154 100.62112 13798 ft 352 kts 36°
2026-05-08 23:20 13.31181 100.63573 13827 ft 355 kts 36°
2026-05-08 23:20 13.33198 100.65030 13843 ft 355 kts 36°
2026-05-08 23:20 13.35219 100.66491 13864 ft 355 kts 36°
2026-05-08 23:21 13.37241 100.67953 13887 ft 356 kts 36°
2026-05-08 23:21 13.39269 100.69420 13895 ft 355 kts 36°
2026-05-08 23:21 13.41276 100.70871 13891 ft 356 kts 36°
2026-05-08 23:21 13.43281 100.72323 13579 ft 357 kts 36°
2026-05-08 23:22 13.45306 100.73791 13138 ft 354 kts 36°
2026-05-08 23:22 13.47307 100.75240 12753 ft 350 kts 36°
2026-05-08 23:22 13.49289 100.76677 12395 ft 346 kts 36°
2026-05-08 23:22 13.51225 100.78081 12296 ft 332 kts 36°
2026-05-08 23:23 13.53054 100.79407 12220 ft 319 kts 36°
2026-05-08 23:23 13.54899 100.80600 12137 ft 307 kts 28°
2026-05-08 23:23 13.56853 100.81424 11917 ft 302 kts 18°
2026-05-08 23:23 13.58892 100.82009 11567 ft 301 kts 16°
2026-05-08 23:24 13.60910 100.82537 11239 ft 299 kts 16°
2026-05-08 23:24 13.62925 100.83067 10930 ft 298 kts 16°
2026-05-08 23:24 13.64940 100.83609 10902 ft 303 kts 16°
2026-05-08 23:24 13.66979 100.84164 10933 ft 304 kts 16°
2026-05-08 23:25 13.69023 100.84722 10958 ft 304 kts 16°
2026-05-08 23:25 13.71075 100.85283 10978 ft 305 kts 16°
2026-05-08 23:25 13.73126 100.85845 10985 ft 303 kts 16°
2026-05-08 23:25 13.75148 100.86397 10780 ft 299 kts 17°
2026-05-08 23:26 13.77160 100.86948 10342 ft 301 kts 17°
2026-05-08 23:26 13.79154 100.87493 10036 ft 296 kts 17°
2026-05-08 23:26 13.81112 100.88028 9833 ft 285 kts 17°
2026-05-08 23:26 13.82995 100.88544 9554 ft 277 kts 17°
2026-05-08 23:27 13.84828 100.89046 9333 ft 266 kts 18°
2026-05-08 23:27 13.86590 100.89529 9040 ft 260 kts 18°
2026-05-08 23:27 13.88332 100.90009 8605 ft 258 kts 18°
2026-05-08 23:27 13.90032 100.90476 8106 ft 256 kts 18°
2026-05-08 23:28 13.91745 100.90946 7629 ft 255 kts 18°
2026-05-08 23:28 13.93468 100.91419 7157 ft 253 kts 18°
2026-05-08 23:28 13.95132 100.91876 6706 ft 251 kts 18°
2026-05-08 23:28 13.96817 100.92339 6244 ft 250 kts 18°
2026-05-08 23:29 13.98495 100.92800 5773 ft 248 kts 15°
2026-05-08 23:29 14.00214 100.92808 5291 ft 254 kts 339°
2026-05-08 23:29 14.01597 100.91735 5025 ft 252 kts 302°
2026-05-08 23:29 14.02199 100.90060 5008 ft 252 kts 272°
2026-05-08 23:30 14.02097 100.88255 5023 ft 252 kts 260°
2026-05-08 23:30 14.01835 100.86471 5009 ft 251 kts 255°
2026-05-08 23:30 14.01109 100.84892 4957 ft 240 kts 221°
2026-05-08 23:30 13.99725 100.84033 4993 ft 234 kts 194°
2026-05-08 23:31 13.98166 100.83617 5031 ft 224 kts 189°
2026-05-08 23:31 13.96698 100.83294 5021 ft 208 kts 189°
2026-05-08 23:31 13.95322 100.82985 4976 ft 201 kts 189°
2026-05-08 23:31 13.93954 100.82661 4784 ft 201 kts 190°
2026-05-08 23:32 13.92599 100.82323 4524 ft 200 kts 191°
2026-05-08 23:32 13.91269 100.81980 4277 ft 200 kts 191°
2026-05-08 23:32 13.89924 100.81624 4022 ft 199 kts 192°
2026-05-08 23:32 13.88587 100.81267 3764 ft 199 kts 192°
2026-05-08 23:33 13.87250 100.80907 3511 ft 198 kts 192°
2026-05-08 23:33 13.85935 100.80554 3277 ft 198 kts 192°
2026-05-08 23:33 13.84604 100.80197 3020 ft 197 kts 192°
2026-05-08 23:33 13.83281 100.79844 2772 ft 197 kts 192°
2026-05-08 23:34 13.81953 100.79489 2514 ft 197 kts 192°
2026-05-08 23:34 13.80633 100.79139 2273 ft 196 kts 192°
2026-05-08 23:34 13.79312 100.78788 2021 ft 196 kts 192°
2026-05-08 23:34 13.77993 100.78438 1758 ft 196 kts 193°
2026-05-08 23:35 13.76699 100.78095 1493 ft 187 kts 193°
2026-05-08 23:35 13.75886 100.77880 1329 ft 180 kts 193°
2026-05-08 23:35 13.74710 100.77568 1096 ft 169 kts 194°
2026-05-08 23:35 13.73581 100.77270 911 ft 167 kts 194°
2026-05-08 23:36 13.72099 100.76879 641 ft 166 kts 195°
2026-05-08 23:36 13.71351 100.76681 505 ft 165 kts 195°
2026-05-08 23:36 13.70243 100.76384 272 ft 164 kts 195°
2026-05-08 23:36 13.69134 100.76086 41 ft 164 kts 195°
2026-05-08 23:37 13.68148 100.75815 23 ft 123 kts 194°
2026-05-08 23:37 13.67487 100.75661 21 ft 69 kts 195°
2026-05-08 23:37 13.67358 100.75626 22 ft 0 kts 194°
2026-05-08 23:37 13.71028 100.76595 452 ft 0 kts 195°
2026-05-08 23:38 13.69854 100.76280 194 ft 0 kts 196°
2026-05-08 23:38 13.68628 100.75946 30 ft 0 kts 195°
2026-05-08 23:38 13.68370 100.75874 28 ft 0 kts 195°
2026-05-08 23:38 13.71224 100.76648 474 ft 0 kts 195°
2026-05-08 23:39 13.67341 100.75622 24 ft 7 kts 194°
2026-05-08 23:39 13.67230 100.75576 21 ft 20 kts 208°
2026-05-08 23:39 13.67793 100.75742 25 ft 0 kts 190°
2026-05-08 23:39 13.71375 100.76688 508 ft 0 kts 195°
2026-05-08 23:40 13.70780 100.76528 391 ft 0 kts 195°
2026-05-08 23:40 13.69554 100.76199 121 ft 0 kts 196°
2026-05-08 23:40 13.68356 100.75870 25 ft 0 kts 195°